QFA85T YSSY-YSCB

Flight info

Callsign QFA85T
Flight time 0h 32m
Altitude 16000
Route YSSY/34L WOL2 WOL DCT TESAT H65 CB DCT LEECE LECE1A YSCB/MENZI I35 Y
Aircraft B738/M-SDE2E3FGHIRWXY/LB1

Departure

Time 2026-04-25 00:22
Airport Sydney Kingsford Smith International Airport (YSSY)

Arrival

Time 2026-04-25 00:55
Airport Canberra Airport (YSCB)
Time Latitude Longitude Altitude Speed Heading
2026-04-25 00:02 -33.93114 151.17713 56 ft 0 kts 189°
2026-04-25 00:09 -33.93113 151.17714 29 ft 1 kts 189°
2026-04-25 00:10 -33.93088 151.17720 29 ft 3 kts 201°
2026-04-25 00:10 -33.93065 151.17735 29 ft 3 kts 225°
2026-04-25 00:10 -33.93056 151.17758 29 ft 3 kts 287°
2026-04-25 00:10 -33.93057 151.17763 29 ft 0 kts 296°
2026-04-25 00:13 -33.93049 151.17743 29 ft 9 kts 296°
2026-04-25 00:13 -33.93017 151.17654 29 ft 12 kts 283°
2026-04-25 00:13 -33.93023 151.17558 29 ft 12 kts 225°
2026-04-25 00:13 -33.93098 151.17522 29 ft 12 kts 178°
2026-04-25 00:14 -33.93178 151.17539 29 ft 11 kts 168°
2026-04-25 00:14 -33.93291 151.17569 29 ft 27 kts 168°
2026-04-25 00:14 -33.93479 151.17587 29 ft 27 kts 174°
2026-04-25 00:14 -33.93652 151.17639 29 ft 25 kts 153°
2026-04-25 00:15 -33.93802 151.17701 29 ft 12 kts 168°
2026-04-25 00:15 -33.93863 151.17760 29 ft 2 kts 143°
2026-04-25 00:15 -33.93872 151.17766 29 ft 2 kts 152°
2026-04-25 00:15 -33.93899 151.17778 29 ft 9 kts 164°
2026-04-25 00:16 -33.94030 151.17813 28 ft 29 kts 167°
2026-04-25 00:16 -33.94201 151.17857 29 ft 14 kts 168°
2026-04-25 00:16 -33.94219 151.17861 29 ft 2 kts 167°
2026-04-25 00:16 -33.94350 151.17896 29 ft 28 kts 168°
2026-04-25 00:17 -33.94490 151.17886 29 ft 12 kts 196°
2026-04-25 00:17 -33.94638 151.17912 29 ft 24 kts 167°
2026-04-25 00:17 -33.94804 151.17955 29 ft 32 kts 168°
2026-04-25 00:17 -33.95036 151.18015 29 ft 21 kts 168°
2026-04-25 00:18 -33.95096 151.18113 29 ft 16 kts 84°
2026-04-25 00:18 -33.95074 151.18242 29 ft 15 kts 77°
2026-04-25 00:18 -33.95054 151.18365 29 ft 15 kts 76°
2026-04-25 00:18 -33.95052 151.18482 29 ft 14 kts 123°
2026-04-25 00:19 -33.95068 151.18497 29 ft 1 kts 162°
2026-04-25 00:19 -33.95105 151.18464 29 ft 20 kts 240°
2026-04-25 00:19 -33.95175 151.18068 30 ft 84 kts 257°
2026-04-25 00:19 -33.95276 151.17621 28 ft 23 kts 227°
2026-04-25 00:20 -33.95444 151.17608 29 ft 47 kts 168°
2026-04-25 00:20 -33.95966 151.17743 29 ft 59 kts 168°
2026-04-25 00:20 -33.96338 151.17839 29 ft 39 kts 168°
2026-04-25 00:20 -33.96437 151.17924 29 ft 6 kts 79°
2026-04-25 00:21 -33.96425 151.17993 29 ft 12 kts 77°
2026-04-25 00:21 -33.96370 151.18049 29 ft 11 kts 351°
2026-04-25 00:21 -33.96362 151.18047 29 ft 0 kts 349°
2026-04-25 00:22 -33.96361 151.18047 29 ft 3 kts 349°
2026-04-25 00:22 -33.95977 151.17946 27 ft 108 kts 348°
2026-04-25 00:22 -33.94973 151.17690 179 ft 178 kts 347°
2026-04-25 00:22 -33.93763 151.17334 1294 ft 193 kts 345°
2026-04-25 00:23 -33.92421 151.16884 2332 ft 206 kts 343°
2026-04-25 00:23 -33.91104 151.16121 3349 ft 215 kts 316°
2026-04-25 00:23 -33.90293 151.14606 4158 ft 219 kts 296°
2026-04-25 00:23 -33.89656 151.12935 4889 ft 220 kts 296°
2026-04-25 00:24 -33.88983 151.11287 5644 ft 220 kts 298°
2026-04-25 00:24 -33.88254 151.09674 6380 ft 219 kts 300°
2026-04-25 00:24 -33.87482 151.08098 7118 ft 217 kts 302°
2026-04-25 00:24 -33.86689 151.06554 7830 ft 215 kts 302°
2026-04-25 00:25 -33.85896 151.05043 8548 ft 212 kts 302°
2026-04-25 00:25 -33.85096 151.03535 9068 ft 222 kts 302°
2026-04-25 00:25 -33.84262 151.01946 9446 ft 235 kts 298°
2026-04-25 00:25 -33.83846 150.99985 9784 ft 250 kts 264°
2026-04-25 00:26 -33.84491 150.98001 10167 ft 264 kts 230°
2026-04-25 00:26 -33.85988 150.96632 10519 ft 283 kts 200°
2026-04-25 00:26 -33.87928 150.96184 10882 ft 289 kts 178°
2026-04-25 00:26 -33.89944 150.96399 11241 ft 292 kts 171°
2026-04-25 00:27 -33.91956 150.96737 11724 ft 288 kts 171°
2026-04-25 00:27 -33.93947 150.97039 12347 ft 292 kts 172°
2026-04-25 00:27 -33.95966 150.97311 12987 ft 299 kts 173°
2026-04-25 00:27 -33.98053 150.97568 13641 ft 303 kts 175°
2026-04-25 00:28 -34.00156 150.97309 14275 ft 305 kts 194°
2026-04-25 00:28 -34.02201 150.96599 14878 ft 308 kts 194°
2026-04-25 00:28 -34.04291 150.95891 15485 ft 317 kts 194°
2026-04-25 00:28 -34.06449 150.95174 16115 ft 325 kts 194°
2026-04-25 00:29 -34.08681 150.94442 16474 ft 342 kts 193°
2026-04-25 00:29 -34.11076 150.93662 16488 ft 369 kts 193°
2026-04-25 00:29 -34.13600 150.92842 16495 ft 392 kts 194°
2026-04-25 00:29 -34.16318 150.91961 16495 ft 413 kts 194°
2026-04-25 00:30 -34.19109 150.91054 16478 ft 415 kts 194°
2026-04-25 00:30 -34.21911 150.90143 16466 ft 417 kts 194°
2026-04-25 00:30 -34.24687 150.89240 16457 ft 416 kts 194°
2026-04-25 00:30 -34.27441 150.88344 16464 ft 415 kts 194°
2026-04-25 00:31 -34.30239 150.87434 16466 ft 415 kts 194°
2026-04-25 00:31 -34.33031 150.86525 16475 ft 415 kts 194°
2026-04-25 00:31 -34.35828 150.85614 16461 ft 416 kts 194°
2026-04-25 00:31 -34.38620 150.84705 16471 ft 416 kts 194°
2026-04-25 00:32 -34.41430 150.83790 16475 ft 417 kts 194°
2026-04-25 00:32 -34.44201 150.82884 16467 ft 417 kts 194°
2026-04-25 00:32 -34.47005 150.81970 16468 ft 418 kts 194°
2026-04-25 00:32 -34.49813 150.81055 16462 ft 418 kts 194°
2026-04-25 00:33 -34.52615 150.80108 16462 ft 418 kts 197°
2026-04-25 00:33 -34.55243 150.78620 16470 ft 419 kts 212°
2026-04-25 00:33 -34.57537 150.76395 16465 ft 421 kts 224°
2026-04-25 00:33 -34.59412 150.73664 16470 ft 422 kts 232°
2026-04-25 00:34 -34.61153 150.70836 16460 ft 422 kts 232°
2026-04-25 00:34 -34.62912 150.67987 16461 ft 422 kts 232°
2026-04-25 00:34 -34.64688 150.65133 16467 ft 422 kts 232°
2026-04-25 00:34 -34.66462 150.62293 16453 ft 422 kts 232°
2026-04-25 00:35 -34.68246 150.59459 16463 ft 422 kts 232°
2026-04-25 00:35 -34.70031 150.56630 16459 ft 422 kts 232°
2026-04-25 00:35 -34.71798 150.53834 16446 ft 409 kts 232°
2026-04-25 00:35 -34.73497 150.51148 16453 ft 390 kts 232°
2026-04-25 00:36 -34.75089 150.48619 16450 ft 374 kts 232°
2026-04-25 00:36 -34.76673 150.46107 16471 ft 372 kts 232°
2026-04-25 00:36 -34.78243 150.43614 16462 ft 371 kts 232°
2026-04-25 00:36 -34.79810 150.41128 16462 ft 371 kts 232°
2026-04-25 00:37 -34.81381 150.38633 16472 ft 371 kts 232°
2026-04-25 00:37 -34.82946 150.36144 16481 ft 371 kts 232°
2026-04-25 00:37 -34.84514 150.33648 16469 ft 371 kts 232°
2026-04-25 00:37 -34.86084 150.31147 16468 ft 371 kts 232°
2026-04-25 00:38 -34.87658 150.28638 16459 ft 372 kts 232°
2026-04-25 00:38 -34.89211 150.26159 16472 ft 372 kts 232°
2026-04-25 00:38 -34.90783 150.23648 16469 ft 372 kts 232°
2026-04-25 00:38 -34.92351 150.21143 16472 ft 371 kts 232°
2026-04-25 00:39 -34.93915 150.18641 16480 ft 371 kts 232°
2026-04-25 00:39 -34.95483 150.16133 16470 ft 372 kts 232°
2026-04-25 00:39 -34.97050 150.13623 16469 ft 371 kts 232°
2026-04-25 00:39 -34.98620 150.11106 16462 ft 371 kts 232°
2026-04-25 00:40 -35.00182 150.08601 16466 ft 371 kts 232°
2026-04-25 00:40 -35.01730 150.06118 16467 ft 371 kts 232°
2026-04-25 00:40 -35.03292 150.03612 16463 ft 371 kts 232°
2026-04-25 00:40 -35.04850 150.01108 16470 ft 371 kts 232°
2026-04-25 00:41 -35.06410 149.98598 16037 ft 373 kts 233°
2026-04-25 00:41 -35.07974 149.96080 15374 ft 368 kts 233°
2026-04-25 00:41 -35.09516 149.93596 14730 ft 362 kts 233°
2026-04-25 00:41 -35.11003 149.91199 14257 ft 354 kts 233°
2026-04-25 00:42 -35.12476 149.88822 13838 ft 351 kts 233°
2026-04-25 00:42 -35.13953 149.86439 13432 ft 352 kts 233°
2026-04-25 00:42 -35.15432 149.84051 13016 ft 352 kts 233°
2026-04-25 00:42 -35.16909 149.81664 12612 ft 348 kts 233°
2026-04-25 00:43 -35.18363 149.79328 12214 ft 345 kts 232°
2026-04-25 00:43 -35.19934 149.77103 11814 ft 343 kts 227°
2026-04-25 00:43 -35.21556 149.75014 11436 ft 342 kts 226°
2026-04-25 00:43 -35.23198 149.72945 11039 ft 333 kts 226°
2026-04-25 00:44 -35.24778 149.70945 10646 ft 320 kts 226°
2026-04-25 00:44 -35.26297 149.69013 10266 ft 309 kts 227°
2026-04-25 00:44 -35.27762 149.67136 9841 ft 300 kts 227°
2026-04-25 00:44 -35.29186 149.65298 9430 ft 293 kts 227°
2026-04-25 00:45 -35.30572 149.63504 9030 ft 286 kts 227°
2026-04-25 00:45 -35.31893 149.61790 8843 ft 276 kts 227°
2026-04-25 00:45 -35.33195 149.60098 8645 ft 274 kts 227°
2026-04-25 00:45 -35.34518 149.58380 8470 ft 280 kts 227°
2026-04-25 00:46 -35.35866 149.56625 8277 ft 284 kts 227°
2026-04-25 00:46 -35.37212 149.54870 8078 ft 282 kts 227°
2026-04-25 00:46 -35.39879 149.51393 7695 ft 279 kts 227°
2026-04-25 00:47 -35.41220 149.49644 7554 ft 281 kts 227°
2026-04-25 00:47 -35.42555 149.47903 7491 ft 280 kts 227°
2026-04-25 00:47 -35.43884 149.46169 7491 ft 278 kts 227°
2026-04-25 00:47 -35.45215 149.44431 7485 ft 279 kts 227°
2026-04-25 00:48 -35.46527 149.42716 7483 ft 279 kts 227°
2026-04-25 00:48 -35.47855 149.40979 7487 ft 279 kts 227°
2026-04-25 00:48 -35.49184 149.39238 7484 ft 279 kts 227°
2026-04-25 00:48 -35.50509 149.37501 7465 ft 279 kts 227°
2026-04-25 00:49 -35.51858 149.35738 7141 ft 287 kts 227°
2026-04-25 00:49 -35.53232 149.33938 6701 ft 290 kts 227°
2026-04-25 00:49 -35.54614 149.32077 6109 ft 297 kts 233°
2026-04-25 00:49 -35.55475 149.29793 5589 ft 298 kts 260°
2026-04-25 00:50 -35.55721 149.27266 5127 ft 299 kts 264°
2026-04-25 00:50 -35.55929 149.24708 4584 ft 301 kts 271°
2026-04-25 00:50 -35.55678 149.23064 4543 ft 291 kts 291°
2026-04-25 00:50 -35.54634 149.21057 4761 ft 271 kts 314°
2026-04-25 00:51 -35.53252 149.19607 5210 ft 258 kts 327°
2026-04-25 00:51 -35.50917 149.19000 5383 ft 270 kts
2026-04-25 00:51 -35.49051 149.19208 5262 ft 272 kts
2026-04-25 00:51 -35.47787 149.19278 5066 ft 268 kts
2026-04-25 00:52 -35.45972 149.19357 4698 ft 253 kts
2026-04-25 00:52 -35.44299 149.19434 4393 ft 237 kts 360°
2026-04-25 00:52 -35.42677 149.19452 4095 ft 220 kts 358°
2026-04-25 00:52 -35.41186 149.19449 3804 ft 209 kts 358°
2026-04-25 00:53 -35.39788 149.19449 3578 ft 194 kts 359°
2026-04-25 00:53 -35.38482 149.19448 3288 ft 180 kts 359°
2026-04-25 00:53 -35.37292 149.19448 3054 ft 160 kts 359°
2026-04-25 00:53 -35.36236 149.19449 2841 ft 143 kts 360°
2026-04-25 00:54 -35.35261 149.19446 2668 ft 138 kts 359°
2026-04-25 00:54 -35.34310 149.19447 2495 ft 135 kts 359°
2026-04-25 00:54 -35.33368 149.19447 2321 ft 135 kts 359°
2026-04-25 00:54 -35.32433 149.19445 2133 ft 135 kts 358°
2026-04-25 00:55 -35.31484 149.19442 1927 ft 135 kts 360°
2026-04-25 00:55 -35.30384 149.19446 1879 ft 83 kts 358°
2026-04-25 00:55 -35.30197 149.19418 1875 ft 24 kts 316°